Weather History for KALB - January, 2013

Change the Weather History Date:

Tuesday, January 1, 2013

  Actual Average Record
Temperature  
Mean Temperature 22 °F 24 °F  
Max Temperature 35 °F 31 °F 57 °F (1966)
Min Temperature 8 °F 16 °F -18 °F (1970)
Degree Days  
Heating Degree Days 43 41  
Month to date heating degree days 43 41  
Since 1 July heating degree days 2305 2576  
Cooling Degree Days 0 0  
Month to date cooling degree days 0 0  
Year to date cooling degree days 0 0  
Moisture  
Dew Point 15 °F    
Average Humidity 63    
Maximum Humidity 73    
Minimum Humidity 52    
Precipitation  
Precipitation T in 0.08 in 0.95 in (1935)
Month to date precipitation T 0.08  
Year to date precipitation T 0.08  
Snow  
Snow T in 0.60 in 9.20 in (1961)
Month to date snowfall T 0.6  
Since 1 July snowfall 13.4 17.1  
Snow Depth 6.00 in    
Sea Level Pressure  
Sea Level Pressure 29.90 in    
Wind  
Wind Speed 11 mph (WNW)    
Max Wind Speed 25 mph    
Max Gust Speed 35 mph    
Visibility 10 miles    
Events Snow    
T = Trace of Precipitation, MM = Missing Value Source: NWS Daily Summary

Daily Weather History Graph

Daily Weather History Graph

Search for Another Location

Airport or City:

Trip Planner

Search our weather history database for the weather conditions in past years. The results will help you decide how hot, cold, wet, or windy it might be!

Date:

Astronomy

Jan. 01, 2013 Rise Set
Actual Time 7:25 AM EST 4:32 PM EST
Civil Twilight 6:53 AM EST 5:04 PM EST
Nautical Twilight 6:18 AM EST 5:39 PM EST
Astronomical Twilight 5:43 AM EST 6:14 PM EST
Moon 9:07 PM EST (1/1) 9:30 AM EST (1/1)
Length of Visible Light 10h 10m
Length of Day
9h 06m
Waning Gibbous, 83% of the Moon is Illuminated
Jan 1
Waning Gibbous
Jan 4
Last Quarter
Jan 11
New
Jan 18
First Quarter
Jan 26
Full

Hourly Weather History & Observations

Time (EST) Temp. Windchill Dew Point Humidity Pressure Visibility Wind Dir Wind Speed Gust Speed Precip Events Conditions
12:51 AM 35.1 °F 28.6 °F 25.0 °F 67% 29.80 in 10.0 mi WSW 8.1 mph - 0.00 in Snow Light Snow
1:51 AM 35.1 °F 26.4 °F 25.0 °F 67% 29.78 in 10.0 mi SW 12.7 mph 20.7 mph 0.00 in Snow Light Snow
2:51 AM 35.1 °F 29.3 °F 25.0 °F 67% 29.78 in 10.0 mi WSW 6.9 mph - 0.00 in Snow Light Snow
3:51 AM 35.1 °F 27.4 °F 25.0 °F 67% 29.79 in 8.0 mi West 10.4 mph - 0.00 in Snow Light Snow
4:36 AM 33.8 °F 24.8 °F 26.6 °F 75% 29.79 in 8.0 mi WNW 12.7 mph 20.7 mph 0.00 in Snow Light Snow
4:51 AM 34.0 °F 23.4 °F 25.0 °F 70% 29.80 in 9.0 mi WNW 17.3 mph 25.3 mph 0.00 in Snow Light Snow
5:51 AM 33.1 °F 23.4 °F 21.0 °F 61% 29.83 in 10.0 mi WNW 13.8 mph 24.2 mph 0.00 in Snow Light Snow
6:51 AM 30.0 °F 19.1 °F 18.0 °F 61% 29.86 in 10.0 mi NW 15.0 mph 26.5 mph 0.00 in Snow Light Snow
7:51 AM 28.9 °F 18.2 °F 18.0 °F 64% 29.88 in 10.0 mi NW 13.8 mph 18.4 mph 0.00 in   Mostly Cloudy
8:51 AM 28.0 °F 17.0 °F 16.0 °F 61% 29.89 in 10.0 mi NW 13.8 mph 26.5 mph 0.00 in Snow Light Snow
9:51 AM 28.0 °F 18.1 °F 16.0 °F 61% 29.92 in 10.0 mi NNW 11.5 mph - 0.00 in Snow Light Snow
10:51 AM 27.0 °F 15.6 °F 16.0 °F 63% 29.92 in 10.0 mi NW 13.8 mph 19.6 mph 0.00 in Snow Light Snow
11:51 AM 28.0 °F 17.0 °F 16.0 °F 61% 29.90 in 10.0 mi West 13.8 mph 23.0 mph 0.00 in   Overcast
12:51 PM 27.0 °F 16.1 °F 15.1 °F 61% 29.91 in 10.0 mi West 12.7 mph - N/A   Mostly Cloudy
1:51 PM 26.1 °F 12.0 °F 15.1 °F 63% 29.90 in 10.0 mi WNW 20.7 mph 28.8 mph N/A   Mostly Cloudy
2:51 PM 25.0 °F 12.6 °F 12.9 °F 60% 29.89 in 10.0 mi West 15.0 mph 32.2 mph N/A   Scattered Clouds
3:51 PM 24.1 °F 13.7 °F 10.9 °F 57% 29.92 in 10.0 mi WNW 10.4 mph - N/A   Scattered Clouds
4:51 PM 23.0 °F 10.6 °F 10.0 °F 58% 29.93 in 10.0 mi WNW 13.8 mph - N/A   Scattered Clouds
5:51 PM 21.9 °F 12.5 °F 7.0 °F 53% 29.96 in 10.0 mi WNW 8.1 mph 19.6 mph N/A   Scattered Clouds
6:51 PM 19.9 °F 9.3 °F 7.0 °F 57% 29.99 in 10.0 mi WNW 9.2 mph 17.3 mph N/A   Scattered Clouds
7:51 PM 19.0 °F 8.2 °F 7.0 °F 59% 30.01 in 10.0 mi WNW 9.2 mph - N/A   Scattered Clouds
8:51 PM 16.0 °F 7.4 °F 6.1 °F 65% 30.00 in 10.0 mi West 5.8 mph - N/A   Partly Cloudy
9:51 PM 12.0 °F - 5.0 °F 73% 30.00 in 10.0 mi Calm Calm - N/A   Clear
10:51 PM 10.0 °F - 3.9 °F 76% 30.01 in 10.0 mi Calm Calm - N/A   Partly Cloudy
11:51 PM 15.1 °F 5.2 °F 7.0 °F 70% 30.00 in 10.0 mi WNW 6.9 mph - N/A   Scattered Clouds